| time (UTC) | temp F | wind direction | speed MPH | gust MPH | rain 1hr in | rain 24hr in | rain mn in | humidity % | barometer mb |
| 20260906150522 | 80 | 0.0 | 1.0 | 0.00 | 0.04 | 0.00 | 82 | 1017.4 | |
| 20260906145522 | 81 | 0.0 | 1.0 | 0.00 | 0.04 | 0.00 | 81 | 1017.5 | |
| 20260906144522 | 81 | 0.0 | 1.0 | 0.00 | 0.04 | 0.00 | 81 | 1017.2 | |
| 20260906143522 | 80 | 0.0 | 2.0 | 0.00 | 0.04 | 0.00 | 83 | 1017.1 | |
| 20260906142522 | 79 | 0.0 | 2.0 | 0.00 | 0.04 | 0.00 | 84 | 1017.0 | |
| 20260906141522 | 79 | 0.0 | 2.0 | 0.00 | 0.04 | 0.00 | 85 | 1017.1 | |
| 20260906140522 | 79 | 0.0 | 0.0 | 0.00 | 0.04 | 0.00 | 85 | 1017.2 | |
| 20260906135602 | 79 | 0.0 | 1.0 | 0.00 | 0.04 | 0.00 | 85 | 1017.0 | |
| 20260906134521 | 80 | 0.0 | 1.0 | 0.00 | 0.04 | 0.00 | 85 | 1016.8 | |
| 20260906133521 | 80 | 0.0 | 1.0 | 0.00 | 0.04 | 0.00 | 85 | 1016.8 | |
| 20260906132522 | 80 | 0.0 | 0.0 | 0.00 | 0.04 | 0.00 | 84 | 1016.7 | |
| 20260906131602 | 80 | 0.0 | 1.0 | 0.00 | 0.04 | 0.00 | 87 | 1016.6 | |
| 20260906130521 | 78 | 0.0 | 0.0 | 0.00 | 0.04 | 0.00 | 88 | 1016.6 | |
| 20260906125521 | 77 | 0.0 | 0.0 | 0.00 | 0.04 | 0.00 | 89 | 1016.7 | |
| 20260906124529 | 77 | 0.0 | 0.0 | 0.00 | 0.04 | 0.00 | 91 | 1016.6 | |
| 20260906123602 | 75 | 0.0 | 0.0 | 0.00 | 0.04 | 0.00 | 95 | 1016.5 | |
| 20260906122522 | 74 | 0.0 | 0.0 | 0.00 | 0.04 | 0.00 | 96 | 1016.6 | |
| 20260906121521 | 73 | 0.0 | 0.0 | 0.00 | 0.04 | 0.00 | 96 | 1016.6 | |
| 20260906120522 | 73 | 0.0 | 0.0 | 0.00 | 0.04 | 0.00 | 96 | 1016.5 | |
| 20260906115521 | 73 | 0.0 | 0.0 | 0.00 | 0.04 | 0.00 | 96 | 1016.4 | |
| 20260906114521 | 73 | 0.0 | 0.0 | 0.00 | 0.04 | 0.00 | 96 | 1016.5 | |
| 20260906113520 | 73 | 0.0 | 0.0 | 0.00 | 0.04 | 0.00 | 96 | 1016.5 | |
| 20260906112541 | 73 | 0.0 | 0.0 | 0.00 | 0.04 | 0.00 | 96 | 1016.3 | |
| 20260906111541 | 73 | 0.0 | 0.0 | 0.00 | 0.04 | 0.00 | 96 | 1016.1 | |
| 20260906110521 | 73 | 0.0 | 0.0 | 0.00 | 0.04 | 0.00 | 96 | 1015.9 | |
| 20260906105520 | 73 | 0.0 | 0.0 | 0.00 | 0.04 | 0.00 | 97 | 1016.0 | |
| 20260906104520 | 73 | 0.0 | 0.0 | 0.00 | 0.04 | 0.00 | 97 | 1015.8 | |
| 20260906103521 | 73 | 0.0 | 0.0 | 0.00 | 0.04 | 0.00 | 97 | 1015.6 | |
| 20260906102521 | 73 | 0.0 | 0.0 | 0.00 | 0.04 | 0.00 | 97 | 1015.5 | |
| 20260906101520 | 73 | 0.0 | 0.0 | 0.00 | 0.04 | 0.00 | 97 | 1015.5 | |
| 20260906100521 | 73 | 0.0 | 0.0 | 0.00 | 0.04 | 0.00 | 97 | 1015.3 | |
| 20260906095541 | 73 | 0.0 | 1.0 | 0.00 | 0.04 | 0.00 | 97 | 1015.1 | |
| 20260906094541 | 72 | 0.0 | 0.0 | 0.00 | 0.04 | 0.00 | 97 | 1015.0 | |
| 20260906093521 | 72 | 0.0 | 0.0 | 0.00 | 0.04 | 0.00 | 97 | 1014.8 | |
| 20260906092521 | 72 | 0.0 | 0.0 | 0.00 | 0.04 | 0.00 | 97 | 1014.7 | |
| 20260906091542 | 72 | 0.0 | 0.0 | 0.00 | 0.04 | 0.00 | 97 | 1014.5 | |
| 20260906090521 | 72 | 0.0 | 0.0 | 0.00 | 0.04 | 0.00 | 97 | 1014.3 | |
| 20260906085521 | 72 | 0.0 | 0.0 | 0.00 | 0.04 | 0.00 | 97 | 1014.2 | |
| 20260906084521 | 73 | 0.0 | 0.0 | 0.00 | 0.04 | 0.00 | 97 | 1014.1 | |
| 20260906083521 | 73 | 0.0 | 0.0 | 0.00 | 0.04 | 0.00 | 97 | 1014.2 | |
| 20260906082521 | 73 | 0.0 | 0.0 | 0.00 | 0.04 | 0.00 | 97 | 1014.2 | |
| 20260906081520 | 73 | 0.0 | 0.0 | 0.00 | 0.04 | 0.00 | 97 | 1014.2 | |
| 20260906080521 | 73 | 0.0 | 0.0 | 0.00 | 0.04 | 0.00 | 97 | 1014.1 | |
| 20260906075542 | 73 | 0.0 | 0.0 | 0.00 | 0.04 | 0.00 | 97 | 1014.1 | |
| 20260906074520 | 73 | 0.0 | 0.0 | 0.00 | 0.04 | 0.00 | 97 | 1014.0 | |
| 20260906073541 | 73 | 0.0 | 0.0 | 0.00 | 0.04 | 0.00 | 97 | 1013.9 | |
| 20260906072520 | 73 | 0.0 | 0.0 | 0.00 | 0.04 | 0.00 | 97 | 1013.9 | |
| 20260906071522 | 73 | 0.0 | 0.0 | 0.00 | 0.04 | 0.00 | 97 | 1014.0 | |
| 20260906070523 | 73 | 0.0 | 0.0 | 0.00 | 0.04 | 0.00 | 97 | 1013.9 | |
| 20260906065520 | 73 | 0.0 | 0.0 | 0.00 | 0.04 | 0.00 | 96 | 1014.1 | |
| 20260906064601 | 73 | 0.0 | 0.0 | 0.00 | 0.04 | 0.00 | 96 | 1014.2 | |
| 20260906063524 | 74 | 0.0 | 0.0 | 0.00 | 0.04 | 0.00 | 97 | 1014.3 | |
| 20260906063020 | 74 | 0.0 | 0.0 | 0.00 | 0.04 | 0.00 | 96 | 1014.3 | |
| 20260906062020 | 74 | 0.0 | 0.0 | 0.00 | 0.04 | 0.00 | 96 | 1014.4 | |
| 20260906061022 | 74 | 0.0 | 0.0 | 0.00 | 0.04 | 0.00 | 96 | 1014.3 | |
| 20260906060021 | 74 | 0.0 | 0.0 | 0.00 | 0.04 | 0.00 | 96 | 1014.3 | |
| 20260906055021 | 74 | 0.0 | 0.0 | 0.00 | 0.04 | 0.00 | 96 | 1014.5 | |
| 20260906054022 | 74 | 0.0 | 0.0 | 0.00 | 0.04 | 0.00 | 95 | 1014.5 | |
| 20260906053022 | 74 | 0.0 | 0.0 | 0.00 | 0.04 | 0.00 | 95 | 1014.8 | |
| 20260906052022 | 74 | 0.0 | 0.0 | 0.00 | 0.04 | 0.00 | 96 | 1015.0 | |
| 20260906051021 | 74 | 0.0 | 0.0 | 0.00 | 0.04 | 0.00 | 96 | 1014.7 | |
| 20260906050022 | 74 | 0.0 | 0.0 | 0.00 | 0.04 | 0.00 | 95 | 1014.9 | |
| 20260906045022 | 74 | 0.0 | 0.0 | 0.00 | 0.04 | 0.00 | 96 | 1014.9 | |
| 20260906044022 | 74 | 0.0 | 0.0 | 0.00 | 0.04 | 0.00 | 96 | 1014.8 | |
| 20260906043020 | 75 | 0.0 | 0.0 | 0.00 | 0.04 | 0.00 | 96 | 1015.0 | |
| 20260906042023 | 75 | 0.0 | 0.0 | 0.00 | 0.04 | 0.00 | 95 | 1015.2 | |
| 20260906041102 | 75 | 0.0 | 0.0 | 0.00 | 0.04 | 0.00 | 95 | 1015.2 | |
| 20260906040024 | 75 | 0.0 | 0.0 | 0.00 | 0.04 | 0.04 | 95 | 1015.2 | |
| 20260906035521 | 75 | 0.0 | 0.0 | 0.00 | 0.04 | 0.04 | 95 | 1015.1 | |
| 20260906034521 | 75 | 0.0 | 0.0 | 0.00 | 0.04 | 0.04 | 95 | 1015.1 | |
| 20260906033521 | 75 | 0.0 | 0.0 | 0.00 | 0.04 | 0.04 | 95 | 1015.2 | |
| 20260906032521 | 75 | 0.0 | 0.0 | 0.00 | 0.04 | 0.04 | 95 | 1015.1 | |
| 20260906031521 | 75 | 0.0 | 0.0 | 0.00 | 0.04 | 0.04 | 95 | 1015.1 | |
| 20260906030521 | 76 | 0.0 | 0.0 | 0.00 | 0.04 | 0.04 | 95 | 1015.2 | |
| 20260906025541 | 76 | 0.0 | 0.0 | 0.00 | 0.04 | 0.04 | 94 | 1015.2 | |
| 20260906024521 | 76 | 0.0 | 0.0 | 0.00 | 0.04 | 0.04 | 94 | 1015.2 | |
| 20260906023521 | 76 | 0.0 | 0.0 | 0.00 | 0.04 | 0.04 | 94 | 1015.1 | |
| 20260906022521 | 76 | 0.0 | 0.0 | 0.00 | 0.04 | 0.04 | 94 | 1014.9 | |
| 20260906021521 | 77 | 0.0 | 0.0 | 0.00 | 0.04 | 0.04 | 94 | 1014.8 | |
| 20260906020521 | 77 | 0.0 | 0.0 | 0.00 | 0.04 | 0.04 | 94 | 1014.8 | |
| 20260906015521 | 77 | 0.0 | 0.0 | 0.00 | 0.04 | 0.04 | 94 | 1014.9 | |
| 20260906014520 | 77 | 0.0 | 0.0 | 0.00 | 0.04 | 0.04 | 95 | 1014.8 | |
| 20260906013522 | 77 | 0.0 | 0.0 | 0.00 | 0.04 | 0.04 | 95 | 1014.9 | |
| 20260906012521 | 77 | 0.0 | 0.0 | 0.00 | 0.04 | 0.04 | 95 | 1014.9 | |
| 20260906011540 | 77 | 0.0 | 0.0 | 0.00 | 0.04 | 0.04 | 95 | 1014.6 | |
| 20260906010521 | 77 | 0.0 | 0.0 | 0.00 | 0.04 | 0.04 | 95 | 1014.5 | |
| 20260906005522 | 77 | 0.0 | 0.0 | 0.00 | 0.04 | 0.04 | 95 | 1014.3 | |
| 20260906004536 | 77 | 0.0 | 0.0 | 0.00 | 0.04 | 0.04 | 95 | 1014.3 | |
| 20260906004021 | 77 | 0.0 | 0.0 | 0.00 | 0.04 | 0.04 | 95 | 1014.2 | |
| 20260906003020 | 77 | 0.0 | 0.0 | 0.00 | 0.04 | 0.04 | 95 | 1014.2 | |
| 20260906002021 | 77 | 0.0 | 0.0 | 0.00 | 0.04 | 0.04 | 94 | 1014.0 | |
| 20260906001020 | 77 | 0.0 | 0.0 | 0.00 | 0.04 | 0.04 | 94 | 1013.6 | |
| 20260906000021 | 78 | 0.0 | 0.0 | 0.00 | 0.04 | 0.04 | 93 | 1013.6 | |
| 20260905235021 | 78 | 0.0 | 0.0 | 0.00 | 0.04 | 0.04 | 93 | 1013.3 | |
| 20260905234021 | 78 | 0.0 | 0.0 | 0.00 | 0.04 | 0.04 | 93 | 1013.2 | |
| 20260905233020 | 79 | 0.0 | 0.0 | 0.00 | 0.04 | 0.04 | 93 | 1013.1 | |
| 20260905232021 | 79 | 0.0 | 0.0 | 0.00 | 0.04 | 0.04 | 92 | 1012.8 | |
| 20260905231023 | 79 | 0.0 | 0.0 | 0.00 | 0.04 | 0.04 | 92 | 1012.7 | |
| 20260905230020 | 79 | 0.0 | 0.0 | 0.00 | 0.04 | 0.04 | 92 | 1012.7 | |
| 20260905225020 | 79 | 0.0 | 0.0 | 0.00 | 0.04 | 0.04 | 92 | 1012.6 | |
| 20260905224021 | 79 | 0.0 | 0.0 | 0.00 | 0.04 | 0.04 | 92 | 1012.8 | |
| 20260905223020 | 79 | 0.0 | 0.0 | 0.00 | 0.04 | 0.04 | 92 | 1013.0 | |
| 20260905222020 | 79 | 0.0 | 0.0 | 0.00 | 0.04 | 0.04 | 91 | 1013.1 | |
| 20260905221041 | 79 | 0.0 | 0.0 | 0.00 | 0.04 | 0.04 | 92 | 1013.0 | |
| 20260905220020 | 79 | 0.0 | 0.0 | 0.00 | 0.04 | 0.04 | 92 | 1013.1 | |
| 20260905215020 | 78 | 0.0 | 0.0 | 0.00 | 0.04 | 0.04 | 91 | 1012.7 | |
| 20260905214040 | 78 | 0.0 | 1.0 | 0.00 | 0.04 | 0.04 | 92 | 1012.6 | |
| 20260905213020 | 78 | 0.0 | 0.0 | 0.00 | 0.04 | 0.04 | 93 | 1012.5 | |
| 20260905212022 | 78 | 0.0 | 0.0 | 0.00 | 0.04 | 0.04 | 93 | 1012.4 | |
| 20260905211021 | 77 | 0.0 | 0.0 | 0.00 | 0.04 | 0.04 | 93 | 1012.4 | |
| 20260905210020 | 77 | 0.0 | 0.0 | 0.00 | 0.04 | 0.04 | 93 | 1012.5 | |
| 20260905205020 | 77 | 0.0 | 0.0 | 0.01 | 0.04 | 0.04 | 93 | 1012.4 | |
| 20260905204024 | 77 | 0.0 | 0.0 | 0.01 | 0.04 | 0.04 | 92 | 1012.6 | |
| 20260905203102 | 77 | 0.0 | 0.0 | 0.04 | 0.04 | 0.04 | 92 | 1012.4 | |
| 20260905202040 | 77 | 0.0 | 0.0 | 0.04 | 0.04 | 0.04 | 93 | 1012.3 | |
| 20260905201020 | 77 | 0.0 | 0.0 | 0.04 | 0.04 | 0.04 | 92 | 1012.5 | |
| 20260905200022 | 77 | 0.0 | 1.0 | 0.04 | 0.04 | 0.04 | 90 | 1013.2 | |
| 20260905195041 | 78 | 0.0 | 0.0 | 0.03 | 0.03 | 0.03 | 89 | 1013.2 | |
| 20260905194040 | 79 | 0.0 | 0.0 | 0.03 | 0.03 | 0.03 | 86 | 1013.2 | |
| 20260905193022 | 81 | 0.0 | 1.0 | 0.00 | 0.00 | 0.00 | 81 | 1013.3 | |
| 20260905192022 | 81 | 0.0 | 1.0 | 0.00 | 0.00 | 0.00 | 75 | 1013.0 | |
| 20260905191022 | 83 | 68 | 1.0 | 8.0 | 0.00 | 0.00 | 0.00 | 73 | 1013.4 |
| 20260905190020 | 86 | 68 | 1.0 | 3.0 | 0.00 | 0.00 | 0.00 | 68 | 1013.7 |
| 20260905185043 | 93 | 270 | 1.0 | 9.0 | 0.00 | 0.00 | 0.00 | 60 | 1013.4 |
| 20260905184022 | 96 | 0.0 | 3.0 | 0.00 | 0.00 | 0.00 | 59 | 1012.3 | |
| 20260905183022 | 98 | 0.0 | 2.0 | 0.00 | 0.00 | 0.00 | 54 | 1012.4 | |
| 20260905182022 | 98 | 0.0 | 4.0 | 0.00 | 0.00 | 0.00 | 56 | 1012.4 | |
| 20260905181022 | 98 | 0.0 | 2.0 | 0.00 | 0.00 | 0.00 | 56 | 1012.7 | |
| 20260905180024 | 97 | 0.0 | 3.0 | 0.00 | 0.00 | 0.00 | 55 | 1012.9 | |
| 20260905175022 | 97 | 315 | 1.0 | 3.0 | 0.00 | 0.00 | 0.00 | 53 | 1013.3 |
| 20260905174022 | 98 | 0.0 | 1.0 | 0.00 | 0.00 | 0.00 | 55 | 1013.5 | |
| 20260905173022 | 98 | 0.0 | 1.0 | 0.00 | 0.00 | 0.00 | 54 | 1013.8 | |
| 20260905172022 | 98 | 0.0 | 1.0 | 0.00 | 0.00 | 0.00 | 53 | 1014.0 | |
| 20260905171022 | 99 | 0.0 | 2.0 | 0.00 | 0.00 | 0.00 | 55 | 1014.2 | |
| 20260905170122 | 97 | 0.0 | 2.0 | 0.00 | 0.00 | 0.00 | 56 | 1014.3 | |
| 20260905165022 | 99 | 0.0 | 2.0 | 0.00 | 0.00 | 0.00 | 53 | 1014.4 | |
| 20260905164022 | 99 | 0.0 | 2.0 | 0.00 | 0.00 | 0.00 | 54 | 1014.6 | |
| 20260905163022 | 99 | 0.0 | 1.0 | 0.00 | 0.00 | 0.00 | 55 | 1014.7 | |
| 20260905162022 | 97 | 0.0 | 3.0 | 0.00 | 0.00 | 0.00 | 57 | 1014.8 | |
| 20260905161041 | 97 | 315 | 1.0 | 3.0 | 0.00 | 0.00 | 0.00 | 58 | 1014.8 |
| 20260905160022 | 98 | 0.0 | 4.0 | 0.00 | 0.00 | 0.00 | 55 | 1014.9 | |
| 20260905155022 | 97 | 0.0 | 1.0 | 0.00 | 0.00 | 0.00 | 57 | 1015.2 | |
| 20260905154022 | 98 | 0.0 | 4.0 | 0.00 | 0.00 | 0.00 | 54 | 1015.4 | |
| 20260905153022 | 97 | 0.0 | 2.0 | 0.00 | 0.00 | 0.00 | 58 | 1015.4 | |
| 20260905152043 | 96 | 0.0 | 3.0 | 0.00 | 0.00 | 0.00 | 59 | 1015.5 |